Home > Weather > Murcia > Past weeks

Flag for Spain Weather for the Past 2 Weeks in Murcia, Spain

Now
59 °F

Clear.


Feels Like: 58 °F
Forecast: 45 / 70 °F
Wind: 6 mph from Northwest

Location: Alicante / El Altet

Current Time: May 5, 2016 at 3:58:08 AM

Latest Report: May 5, 2016 at 3:30 AM


Visibility: 10 mi

Pressure: 30.01 "Hg

Humidity: 72%

Dew Point: 50 °F

Location of MurciaLocation

Historic Weather in Murcia — Graph

°F

Murcia Temperature Yesterday

Maximum temperature yesterday: 72 °F (at 3:30 PM)
Minimum temperature yesterday: 52 °F (at 5:30 AM)
Average temperature yesterday: 63 °F

High & Low Weather Summary for the Past Weeks

 TemperatureHumidityPressure
High75 °F (Apr 21, 1:00 PM)94% (Apr 29, 11:00 AM)30.24 "Hg (Apr 29, 11:00 AM)
Low46 °F (May 2, 6:30 AM)15% (May 3, 2:00 PM)29.83 "Hg (Apr 27, 4:00 AM)
Average63 °F61%30.04 "Hg
* Reported Apr 20 2:00 AM — May 5 2:30 AM, Murcia, Weather by CustomWeather, © 2016

Note: Actual official high and low records may vary slightly from our data, if they occured in-between our weather recording intervals... More about our weather records

Advertising

Murcia Weather History for the Previous 24 Hours

Scroll right to see more
 ConditionsComfort  
Time TempWeatherWind HumidityBarometerVisibility
2:30 AM
Thu, May 5
61 °FClear.2 mph72%30.04 "Hg10 mi
2:00 AM61 °FClear.5 mph77%30.04 "Hg10 mi
1:30 AM61 °FClear.1 mph77%30.07 "Hg10 mi
1:00 AM61 °FClear.3 mph83%30.07 "Hg10 mi
12:30 AM63 °FClear.2 mph77%30.09 "Hg10 mi
12:00 AM64 °FClear.5 mph73%30.09 "Hg10 mi
11:30 PM
Wed, May 4
63 °FPassing clouds.5 mph73%30.09 "HgN/A
11:00 PM63 °FClear.6 mph68%30.09 "Hg10 mi
10:30 PM63 °FPassing clouds.6 mph68%30.07 "HgN/A
10:00 PM63 °FPassing clouds.5 mph64%30.07 "HgN/A
9:30 PM63 °FPassing clouds.5 mph64%30.07 "HgN/A
9:00 PM64 °FPassing clouds.6 mph64%30.07 "HgN/A
8:30 PM64 °FPassing clouds.7 mph64%30.07 "HgN/A
8:00 PM64 °FPassing clouds.8 mph60%30.07 "HgN/A
7:30 PM66 °FSunny.9 mph56%30.07 "Hg10 mi
7:00 PM66 °FPassing clouds.9 mph52%30.09 "HgN/A
6:30 PM68 °FPassing clouds.8 mph49%30.07 "HgN/A
6:00 PM68 °FPassing clouds.9 mph46%30.07 "HgN/A
5:30 PM68 °FPassing clouds.10 mph46%30.09 "HgN/A
5:00 PM70 °FSunny.12 mph43%30.09 "Hg10 mi
4:30 PM68 °FPassing clouds.10 mph43%30.09 "HgN/A
4:00 PM70 °FPassing clouds.9 mph38%30.12 "HgN/A
3:30 PM72 °FPassing clouds.10 mph33%30.12 "HgN/A
3:00 PM70 °FPassing clouds.12 mph33%30.12 "HgN/A
2:30 PM70 °FSunny.13 mph35%30.12 "Hg10 mi
2:00 PM70 °FPassing clouds.12 mph33%30.12 "HgN/A
1:30 PM70 °FSunny.13 mph31%30.12 "Hg10 mi
1:00 PM70 °FPassing clouds.13 mph33%30.15 "HgN/A
12:30 PM68 °FPassing clouds.13 mph35%30.15 "HgN/A
12:00 PM70 °FSunny.14 mph33%30.15 "Hg10 mi
11:30 AM68 °FPassing clouds.13 mph40%30.15 "HgN/A
11:00 AM66 °FSunny.12 mph52%30.15 "Hg10 mi
10:30 AM66 °FSunny.13 mph56%30.15 "Hg10 mi
10:00 AM64 °FPassing clouds.10 mph60%30.15 "HgN/A
9:30 AM63 °FPassing clouds.7 mph42%30.15 "HgN/A
9:00 AM61 °FPassing clouds.7 mph45%30.12 "HgN/A
8:30 AM61 °FPassing clouds.6 mph39%30.12 "HgN/A
8:00 AM59 °FSunny.5 mph42%30.12 "Hg10 mi
7:30 AM61 °FPassing clouds.3 mph39%30.12 "HgN/A
7:00 AM55 °FPassing clouds.2 mph51%30.12 "HgN/A
6:30 AM57 °FPassing clouds.1 mph48%30.09 "HgN/A
6:00 AM55 °FPassing clouds.1 mph51%30.12 "HgN/A
5:30 AM52 °FPassing clouds.2 mph58%30.12 "HgN/A
5:00 AM55 °FPassing clouds.2 mph51%30.12 "HgN/A
4:30 AM54 °FClear.No wind54%30.09 "Hg10 mi
4:00 AM59 °FClear.No wind45%30.09 "Hg10 mi
3:30 AM57 °FClear.3 mph51%30.09 "Hg10 mi
3:00 AM59 °FClear.3 mph48%30.12 "Hg10 mi
Weather by CustomWeather, © 2016

See weather overviewHow to use our weather pages